Time,TemperatureF,DewpointF,PressureIn,WindDirection,WindDirectionDegrees,WindSpeedMPH,WindSpeedGustMPH,Humidity,HourlyPrecipIn,Conditions,Clouds,dailyrainin,SoftwareType,DateUTC
2015-08-01 00:02:00,49.1,44.0,29.94,SE,134,0.0,1.0,82,0.00,,,0.00,weatherlink.com 1.10,2015-08-01 06:02:00,
2015-08-01 00:17:00,48.9,44.0,29.95,SSW,197,0.0,0.0,82,0.00,,,0.00,weatherlink.com 1.10,2015-08-01 06:17:00,
2015-08-01 00:32:00,48.6,43.0,29.95,SSW,197,0.0,0.0,82,0.00,,,0.00,weatherlink.com 1.10,2015-08-01 06:32:00,
2015-08-01 00:47:00,48.3,43.0,29.94,SSW,197,0.0,0.0,83,0.00,,,0.00,weatherlink.com 1.10,2015-08-01 06:47:00,
2015-08-01 01:02:00,48.6,44.0,29.94,SSW,197,0.0,0.0,83,0.00,,,0.00,weatherlink.com 1.10,2015-08-01 07:02:00,
2015-08-01 01:17:00,48.9,44.0,29.93,SSW,197,0.0,0.0,82,0.00,,,0.00,weatherlink.com 1.10,2015-08-01 07:17:00,
2015-08-01 01:32:00,48.5,43.0,29.92,SSW,197,0.0,0.0,82,0.00,,,0.00,weatherlink.com 1.10,2015-08-01 07:32:00,
2015-08-01 01:47:00,47.9,43.0,29.92,SSW,197,0.0,0.0,82,0.00,,,0.00,weatherlink.com 1.10,2015-08-01 07:47:00,
2015-08-01 02:03:00,47.2,42.0,29.92,SSW,197,1.0,1.0,83,0.00,,,0.00,weatherlink.com 1.10,2015-08-01 08:03:00,
2015-08-01 02:18:00,46.7,42.0,29.91,SSW,197,0.0,0.0,82,0.00,,,0.00,weatherlink.com 1.10,2015-08-01 08:18:00,
2015-08-01 02:33:00,45.8,40.0,29.91,SSW,197,0.0,0.0,81,0.00,,,0.00,weatherlink.com 1.10,2015-08-01 08:33:00,
2015-08-01 02:48:00,45.0,40.0,29.91,WSW,252,0.0,1.0,82,0.00,,,0.00,weatherlink.com 1.10,2015-08-01 08:48:00,
2015-08-01 03:03:00,44.4,40.0,29.91,WSW,251,0.0,0.0,83,0.00,,,0.00,weatherlink.com 1.10,2015-08-01 09:03:00,
2015-08-01 03:18:00,43.8,39.0,29.92,WSW,252,0.0,0.0,83,0.00,,,0.00,weatherlink.com 1.10,2015-08-01 09:18:00,
2015-08-01 03:33:00,43.4,39.0,29.92,WSW,251,0.0,0.0,83,0.00,,,0.00,weatherlink.com 1.10,2015-08-01 09:33:00,
2015-08-01 03:48:00,42.9,38.0,29.93,WSW,251,0.0,0.0,84,0.00,,,0.00,weatherlink.com 1.10,2015-08-01 09:48:00,
2015-08-01 04:03:00,42.6,38.0,29.93,WSW,250,0.0,0.0,84,0.00,,,0.00,weatherlink.com 1.10,2015-08-01 10:03:00,
2015-08-01 04:18:00,42.4,38.0,29.93,SSW,197,0.0,1.0,84,0.00,,,0.00,weatherlink.com 1.10,2015-08-01 10:18:00,
2015-08-01 04:33:00,42.4,38.0,29.93,SSW,197,0.0,0.0,84,0.00,,,0.00,weatherlink.com 1.10,2015-08-01 10:33:00,
2015-08-01 04:48:00,42.8,38.0,29.93,SSW,197,0.0,1.0,83,0.00,,,0.00,weatherlink.com 1.10,2015-08-01 10:48:00,
2015-08-01 05:03:00,42.5,38.0,29.93,SSW,197,0.0,2.0,83,0.00,,,0.00,weatherlink.com 1.10,2015-08-01 11:03:00,
2015-08-01 05:18:00,42.5,37.0,29.92,SSW,197,0.0,2.0,82,0.00,,,0.00,weatherlink.com 1.10,2015-08-01 11:18:00,
2015-08-01 05:33:00,42.4,38.0,29.92,SSW,197,0.0,2.0,83,0.00,,,0.00,weatherlink.com 1.10,2015-08-01 11:33:00,
2015-08-01 05:48:00,42.4,37.0,29.92,SSW,197,1.0,2.0,82,0.00,,,0.00,weatherlink.com 1.10,2015-08-01 11:48:00,
2015-08-01 06:03:00,42.2,37.0,29.93,SSW,197,1.0,2.0,82,0.00,,,0.00,weatherlink.com 1.10,2015-08-01 12:03:00,
2015-08-01 06:18:00,41.9,37.0,29.93,SSW,197,0.0,0.0,82,0.00,,,0.00,weatherlink.com 1.10,2015-08-01 12:18:00,
2015-08-01 06:33:00,41.9,37.0,29.93,SSW,197,0.0,0.0,82,0.00,,,0.00,weatherlink.com 1.10,2015-08-01 12:33:00,
2015-08-01 06:48:00,41.5,37.0,29.93,SSW,197,0.0,0.0,84,0.00,,,0.00,weatherlink.com 1.10,2015-08-01 12:48:00,
2015-08-01 07:03:00,41.5,37.0,29.93,SSW,197,1.0,2.0,83,0.00,,,0.00,weatherlink.com 1.10,2015-08-01 13:03:00,
2015-08-01 07:18:00,41.8,37.0,29.93,SSW,197,0.0,0.0,84,0.00,,,0.00,weatherlink.com 1.10,2015-08-01 13:18:00,
2015-08-01 07:33:00,42.3,38.0,29.93,SSW,197,0.0,0.0,84,0.00,,,0.00,weatherlink.com 1.10,2015-08-01 13:33:00,
2015-08-01 07:48:00,42.9,38.0,29.94,SSW,197,0.0,0.0,83,0.00,,,0.00,weatherlink.com 1.10,2015-08-01 13:48:00,
2015-08-01 08:03:00,43.9,38.0,29.94,SSW,197,0.0,0.0,80,0.00,,,0.00,weatherlink.com 1.10,2015-08-01 14:03:00,
2015-08-01 08:18:00,45.7,39.0,29.94,SSW,197,4.0,4.0,78,0.00,,,0.00,weatherlink.com 1.10,2015-08-01 14:18:00,
2015-08-01 08:33:00,48.2,40.0,29.94,SSW,197,0.0,2.0,72,0.00,,,0.00,weatherlink.com 1.10,2015-08-01 14:33:00,
2015-08-01 08:48:00,51.2,41.0,29.94,SSW,197,0.0,4.0,67,0.00,,,0.00,weatherlink.com 1.10,2015-08-01 14:48:00,
2015-08-01 09:03:00,54.5,41.0,29.94,SSW,197,0.0,0.0,61,0.00,,,0.00,weatherlink.com 1.10,2015-08-01 15:03:00,
2015-08-01 09:19:00,57.6,41.0,29.93,WNW,302,0.0,2.0,54,0.00,,,0.00,weatherlink.com 1.10,2015-08-01 15:19:00,
2015-08-01 09:34:00,59.6,38.0,29.93,WNW,290,1.0,3.0,45,0.00,,,0.00,weatherlink.com 1.10,2015-08-01 15:34:00,
2015-08-01 09:49:00,60.7,34.0,29.92,WNW,290,0.0,6.0,37,0.00,,,0.00,weatherlink.com 1.10,2015-08-01 15:49:00,
2015-08-01 10:04:00,62.3,36.0,29.92,WNW,297,1.0,3.0,37,0.00,,,0.00,weatherlink.com 1.10,2015-08-01 16:04:00,
2015-08-01 10:19:00,62.8,32.0,29.92,SSW,202,0.0,9.0,31,0.00,,,0.00,weatherlink.com 1.10,2015-08-01 16:19:00,
2015-08-01 10:34:00,64.3,37.0,29.92,SSW,206,0.0,5.0,36,0.00,,,0.00,weatherlink.com 1.10,2015-08-01 16:34:00,
2015-08-01 10:49:00,66.0,32.0,29.91,SSE,167,1.0,8.0,28,0.00,,,0.00,weatherlink.com 1.10,2015-08-01 16:49:00,
2015-08-01 11:04:00,67.0,34.0,29.91,West,268,0.0,5.0,29,0.00,,,0.00,weatherlink.com 1.10,2015-08-01 17:04:00,
2015-08-01 11:19:00,66.6,31.0,29.91,WSW,242,0.0,7.0,26,0.00,,,0.00,weatherlink.com 1.10,2015-08-01 17:19:00,
2015-08-01 11:34:00,67.8,27.0,29.91,SSW,199,2.0,6.0,22,0.00,,,0.00,weatherlink.com 1.10,2015-08-01 17:34:00,
2015-08-01 11:49:00,68.3,33.0,29.90,WSW,253,0.0,6.0,27,0.00,,,0.00,weatherlink.com 1.10,2015-08-01 17:49:00,
2015-08-01 12:04:00,67.6,31.0,29.90,NW,326,0.0,8.0,26,0.00,,,0.00,weatherlink.com 1.10,2015-08-01 18:04:00,
2015-08-01 12:19:00,68.3,30.0,29.89,NW,304,0.0,7.0,24,0.00,,,0.00,weatherlink.com 1.10,2015-08-01 18:19:00,
2015-08-01 12:34:00,68.5,30.0,29.89,West,276,1.0,8.0,24,0.00,,,0.00,weatherlink.com 1.10,2015-08-01 18:34:00,
2015-08-01 12:49:00,67.5,30.0,29.88,SSW,197,2.0,7.0,25,0.00,,,0.00,weatherlink.com 1.10,2015-08-01 18:49:00,
2015-08-01 13:04:00,68.3,32.0,29.87,SSW,198,2.0,5.0,26,0.00,,,0.00,weatherlink.com 1.10,2015-08-01 19:04:00,
2015-08-01 13:19:00,70.3,30.0,29.87,West,270,0.0,5.0,22,0.00,,,0.00,weatherlink.com 1.10,2015-08-01 19:19:00,
2015-08-01 13:34:00,70.2,35.0,29.86,SSW,197,3.0,8.0,27,0.00,,,0.00,weatherlink.com 1.10,2015-08-01 19:34:00,